Date,TemperatureHighF,TemperatureAvgF,TemperatureLowF,DewpointHighF,DewpointAvgF,DewpointLowF,HumidityHigh,HumidityAvg,HumidityLow,PressureMaxIn,PressureMinIn,WindSpeedMaxMPH,WindSpeedAvgMPH,GustSpeedMaxMPH,PrecipitationSumIn
2012-11-28,68.7,62.7,65.4,65.8,53.7,-99.9,94,85,90,29.96,29.94,11,-56,0,0.00
2012-11-29,79.3,71.1,61.4,66.8,62.6,60.2,97,76,57,29.97,29.91,11,11,0,0.00
2012-11-30,78.1,74.1,71.6,62.0,60.3,58.0,67,62,56,29.97,29.88,11,10,0,0.00
2012-12-1,79.8,74.9,71.2,65.2,61.8,60.2,74,64,54,29.95,29.88,11,10,0,0.00
2012-12-2,80.1,75.9,73.3,65.5,63.8,62.1,72,66,58,29.99,29.90,13,10,0,0.00
2012-12-3,79.5,74.3,70.9,63.9,60.1,50.4,74,62,47,30.00,29.91,13,11,0,0.00
2012-12-4,79.1,74.5,70.3,62.7,59.0,52.0,70,59,49,29.99,29.89,13,12,0,0.00
2012-12-5,81.5,75.0,70.6,65.1,62.4,59.5,76,65,51,29.90,29.78,13,12,0,0.00
2012-12-6,81.9,74.5,69.1,70.8,66.7,64.2,93,78,57,29.78,29.67,13,11,0,0.00
2012-12-7,82.9,73.1,66.6,70.4,67.6,65.5,99,84,58,29.78,29.69,13,11,0,0.00
2012-12-8,83.1,75.2,66.5,73.6,69.8,65.9,99,84,65,29.84,29.77,13,11,0,0.00
2012-12-9,85.5,76.9,70.2,75.3,72.9,69.5,98,88,65,29.91,29.80,13,11,0,0.00
2012-12-10,85.9,77.0,69.5,77.2,71.6,-99.9,99,86,67,29.85,29.73,13,0,0,0.00
2012-12-11,90.3,78.8,72.3,78.7,74.0,70.0,99,86,56,29.90,29.75,13,8,0,0.24
2012-12-12,84.4,75.7,70.9,74.8,71.9,70.6,99,89,66,29.94,29.85,3,0,0,0.00
2012-12-13,78.1,71.3,64.8,75.2,68.7,63.9,99,92,77,29.95,29.85,4,1,0,0.00
2012-12-14,77.4,68.8,62.2,68.4,63.2,57.5,99,84,52,29.99,29.89,6,1,0,0.04
2012-12-15,78.8,72.1,65.5,67.5,65.1,62.7,99,80,62,29.96,29.86,6,2,0,0.16
2012-12-16,81.7,71.5,66.2,71.8,67.4,64.6,99,88,62,29.89,29.79,4,0,0,0.00
2012-12-17,83.5,72.0,62.4,68.9,66.1,62.1,99,84,53,29.83,29.73,3,0,0,0.00
2012-12-18,81.1,71.8,65.1,71.3,67.0,64.7,99,86,59,29.88,29.76,2,0,0,0.00
2012-12-19,78.4,67.8,57.2,65.2,61.2,56.1,98,82,53,29.96,29.86,5,0,0,0.00
2012-12-20,79.2,68.3,61.0,67.5,64.7,60.7,99,89,61,29.96,29.82,3,0,0,0.00
2012-12-21,70.3,63.1,50.4,69.1,51.4,34.6,97,69,34,30.04,29.80,7,2,0,0.49
2012-12-22,64.9,53.1,43.5,37.3,28.7,19.0,61,41,19,30.13,30.04,13,6,0,0.00
2012-12-23,71.2,59.0,47.5,54.2,44.1,31.6,83,59,45,30.11,30.00,9,3,0,0.00
2012-12-24,78.3,65.7,54.7,59.5,55.9,52.0,96,73,49,30.00,29.84,11,2,0,0.00
2012-12-25,77.9,68.8,57.4,64.0,60.6,57.1,99,77,55,29.91,29.79,12,3,0,0.00
2012-12-26,83.5,73.8,62.2,70.1,66.6,57.3,99,79,56,29.85,29.68,19,7,0,0.00
2012-12-27,71.4,59.5,51.1,56.7,48.2,40.9,98,70,34,29.94,29.84,9,3,0,0.00
2012-12-28,75.9,67.1,51.8,70.5,62.3,50.7,99,85,67,29.95,29.82,9,4,0,0.00
2012-12-29,81.7,74.6,60.3,73.5,69.5,52.4,99,85,63,29.97,29.79,14,7,0,0.00
2012-12-30,66.9,59.8,49.1,55.7,50.5,44.4,85,72,62,30.16,29.98,14,8,0,0.00
2012-12-31,73.4,69.3,64.9,59.4,56.7,53.3,68,64,58,30.17,30.05,16,7,0,0.00
2013-1-1,78.8,72.1,64.9,63.2,59.9,57.2,84,66,54,30.07,29.91,16,4,0,0.00